Hourly Data Report for October 26, 2015

All times are specified in Local Standard Time (LST). Add 1 hour to adjust for Daylight Saving Time where and when it is observed.

BAKER LAKE A
NUNAVUT

64°17'56.000" N
96°04'40.000" W
18.60 m
2300503
71926
YBK

Download Data

Hourly Data (October 2015)
Hourly Data Report for October 26, 2015
Temp Definition
°C
Dew Point Temp Definition
°C
Rel Hum Definition
%
Wind Dir Definition
10's deg

Wind Spd Definition
km/h
Visibility Definition
km
Stn Press Definition
kPa
Hmdx Definition


Wind Chill Definition


Weather Definition


TIME
00:00 Legend Double Dagger -15.2 -17.9 80 29 38 16.1 100.87   -27 Blowing Snow
01:00 Legend Double Dagger -15.4 -18.0 81 29 39 16.1 100.86   -28 Blowing Snow
02:00 Legend Double Dagger -14.6 -17.3 80 31 40 12.9 100.94   -27 Blowing Snow
03:00 Legend Double Dagger -14.9 -17.5 81 31 55 12.9 100.82   -29 Blowing Snow
04:00 Legend Double Dagger -14.8 -17.5 80 31 49 16.1 100.91   -28 Blowing Snow
05:00 Legend Double Dagger -14.3 -17.0 80 31 42 16.1 100.98   -27 Blowing Snow
06:00 Legend Double Dagger -14.3 -16.9 81 30 49 16.1 101.00   -28 Blowing Snow
07:00 Legend Double Dagger -14.7 -17.4 80 31 36 12.9 101.09   -27 Blowing Snow
08:00 Legend Double Dagger -14.8 -17.7 79 30 45 16.1 101.14   -28 Blowing Snow
09:00 Legend Double Dagger -14.3 -17.3 78 30 37 32.2 101.21   -26 Blowing Snow
10:00 Legend Double Dagger -14.2 -17.2 78 31 46 16.1 101.17   -27 Blowing Snow
11:00 Legend Double Dagger -13.5 -17.0 75 30 34 32.2 101.28   -25 Blowing Snow
12:00 Legend Double Dagger -13.3 -16.4 78 31 48 24.1 101.22   -26 Blowing Snow
13:00 Legend Double Dagger -12.7 -16.1 76 30 37 24.1 101.29   -24 Blowing Snow
14:00 Legend Double Dagger -12.7 -16.1 76 30 48 32.2 101.26   -25 Blowing Snow
15:00 Legend Double Dagger -13.0 -16.7 74 30 47 32.2 101.33   -26 Blowing Snow
16:00 Legend Double Dagger -14.1 -17.3 77 27 37 32.2 101.36   -26 Blowing Snow
17:00 Legend Double Dagger -14.0 -17.2 77 30 40 32.2 101.39   -26 Blowing Snow
18:00 Legend Double Dagger -14.3 -17.3 78 29 46 24.1 101.40   -27 Blowing Snow
19:00 Legend Double Dagger -14.7 -17.9 77 30 50 24.1 101.44   -28 Blowing Snow
20:00 Legend Double Dagger -14.9 -18.2 76 29 43 24.1 101.41   -28 Blowing Snow
21:00 Legend Double Dagger -14.9 -18.2 76 29 28 24.1 101.49   -26 Blowing Snow
22:00 Legend Double Dagger -15.4 -18.7 76 27 26 24.1 101.52   -26 Blowing Snow
23:00 Legend Double Dagger -15.4 -18.9 75 30 40 24.1 101.47   -28 Blowing Snow

Notes on Data Quality.

Legend

  • E = Estimated
  • M = Missing
  • NA = Not Available
  • ‡ = Partner data that is not subject to review by the National Climate Archives
Date modified: